This demonstration page uses our WeatherBlox Daily Observations layout. Learn more.

Left ArrowRight Arrow

39.92423, -83.80882

Hourly Observations for February 21, 2022

Temp ( °F °C ) Dew Point ( °F °C ) Humidity (%) Winds ( mph kmh ) Pressure ( in mb ) Visibility ( mi km ) Precip ( " mm )
12:56 am 00:56 Clear 43 6.1 27 -2.8 53 53 SSW 7 11 30.13 1020 10 16 0.00 0.00
1:56 am 01:56 Clear 41 5 27 -2.8 57 57 SSW 9 15 30.14 1021 10 16 0.00 0.00
2:56 am 02:56 Clear 41 5 26 -3.3 55 55 S 9 15 30.14 1021 10 16 0.00 0.00
3:56 am 03:56 Clear 40 4.4 25 -3.9 55 55 SSW 6 9 30.13 1020 10 16 0.00 0.00
4:56 am 04:56 Clear 39 3.9 26 -3.3 60 60 S 8 13 30.13 1020 10 16 0.00 0.00
5:56 am 05:56 Clear 41 5 26 -3.3 55 55 S 8 13 30.14 1021 10 16 0.00 0.00
6:56 am 06:56 Clear 40 4.4 25 -3.9 55 55 S 8 13 30.15 1021 10 16 0.00 0.00
7:56 am 07:56 Sunny 40 4.4 26 -3.3 58 58 S 12 19 30.16 1021 10 16 0.00 0.00
8:56 am 08:56 Sunny 44 6.7 28 -2.2 53 53 S 10 17 30.16 1021 10 16 0.00 0.00
9:56 am 09:56 Sunny 49 9.4 29 -1.7 46 46 SSW 13 20 30.16 1021 10 16 0.00 0.00
10:56 am 10:56 Sunny 52 11.1 31 -0.6 45 45 SSW 13 20 30.14 1021 10 16 0.00 0.00
11:56 am 11:56 Sunny 56 13.3 35 1.7 46 46 SSW 9 15 30.12 1020 10 16 0.00 0.00
12:56 pm 12:56 Sunny 58 14.4 37 2.8 46 46 S 14 22 30.09 1019 10 16 0.00 0.00
1:56 pm 13:56 Cloudy 57 13.9 40 4.4 53 53 S 8 13 30.07 1018 10 16 0.00 0.00
2:56 pm 14:56 Cloudy 58 14.4 41 5 53 53 SSE 10 17 30.05 1018 10 16 0.00 0.00
3:56 pm 15:56 Cloudy 59 15 43 6.1 56 56 S 13 20 30.03 1017 10 16 0.00 0.00
4:56 pm 16:56 Cloudy 59 15 43 6.1 56 56 S 9 15 30.04 1017 10 16 0.00 0.00
5:56 pm 17:56 Cloudy 55 12.8 43 6.1 64 64 SSE 7 11 30.04 1017 10 16 0.00 0.00
6:56 pm 18:56 Partly Cloudy 52 11.1 43 6.1 72 72 SSE 8 13 30.04 1017 10 16 0.00 0.00
7:56 pm 19:56 Cloudy 53 11.7 43 6.1 69 69 SSE 9 15 30.04 1017 10 16 0.00 0.00
8:56 pm 20:56 Mostly Clear 50 10 39 3.9 66 66 SSE 10 17 30.03 1017 10 16 0.00 0.00
9:56 pm 21:56 Mostly Clear 51 10.6 37 2.8 59 59 SSE 12 19 30.03 1017 10 16 0.00 0.00
10:56 pm 22:56 Clear 52 11.1 37 2.8 57 57 SSE 13 20 30.00 1016 10 16 0.00 0.00
11:56 pm 23:56 Mostly Cloudy 51 10.6 40 4.4 66 66 S 7 11 30.00 1016 10 16 0.00 0.00

Powered by AerisWeather